Regional Weather Roundup
Issued by NWS

Home | Current Version | Previous Version | Text Only | Print | Product List | Glossary Off
Versions: 1 2 3 4 5 6 7 8 9 10 11 12 13 14 15 16 17 18 19 20 21 22 23 24 25 26 27 28 29 30 31 32 33 34 35 36 37 38 39 40 41 42 43 44 45 46 47 48 49 50

000
ASUS43 KTOP 271108
RWRKS

WEATHER ROUNDUP FOR KANSAS
NATIONAL WEATHER SERVICE GOODLAND KS
600 AM CDT TUE JUN 27 2017

NOTE:  "FAIR" INDICATES FEW OR NO CLOUDS BELOW 12,000 FEET WITH NO
SIGNIFICANT WEATHER AND/OR OBSTRUCTIONS TO VISIBILITY.

KSZ001>006-013>018-027>032-041>047-271200-
NORTHWEST KANSAS

CITY           SKY/WX    TMP DP  RH WIND       PRES   REMARKS
GOODLAND       MOCLDY    58  58 100 SE8       30.04R
HAYS           CLOUDY    63  61  93 E14       30.03F
HILL CITY      CLOUDY    61  61 100 E12       30.04F
RUSSELL        CLOUDY    63  60  90 E14       30.03F
$$

KSZ061>065-074>080-084>089-271200-
SOUTHWEST KANSAS

CITY           SKY/WX    TMP DP  RH WIND       PRES   REMARKS
DODGE CITY     CLEAR     66  63  90 SE9       30.01F
ELKHART          N/A     64  45  50 W7          N/A
GARDEN CITY    CLEAR     63  61  93 SE8       30.00F
GREAT BEND     CLOUDY    64  62  93 E13       30.03F
LIBERAL        PTCLDY    64  61  90 SW8       30.03R
PRATT          MOCLDY    62  59  91 SE6       30.03F
$$

KSZ066>073-081>083-090>101-271200-
SOUTHEAST KANSAS

CITY           SKY/WX    TMP DP  RH WIND       PRES   REMARKS
CHANUTE        CLOUDY    63  62  97 E6        30.09F FOG
COFFEYVILLE    CLOUDY    65  64  97 E5        30.08S
HUTCHINSON     CLOUDY    64  61  90 E10       30.04F THUNDER
MEDICINE LODGE   N/A     66  63  90 SE9       30.02R
NEWTON         PTCLDY    63  62  97 SE10      30.06F
PARSONS        MOCLDY    64  62  93 CALM      30.09S
WICHITA INTL   CLOUDY    65  64  97 SE10      30.04F THUNDER
WICHITA JABRA  TSTM      65  63  93 SE10      30.05F
WICHITA MCCONL CLOUDY    65  62  91 SE9       30.05F
WINFIELD       CLOUDY    65  63  93 E8        30.07R
$$

KSZ007>012-019>026-033>040-048>060-102>105-271200-
NORTHEAST KANSAS

CITY           SKY/WX    TMP DP  RH WIND       PRES   REMARKS
CONCORDIA      FOG       57  57 100 E8        30.07F VSB 1/2
EMPORIA        CLOUDY    60  60 100 E8        30.09F
LAWRENCE       CLEAR     54  54 100 E3        30.12S FOG
MANHATTAN      MOCLDY    60  59  96 E5        30.09S
MARYSVILLE     CLEAR     54  54 100 SE6       30.10F FOG
OLATHE IND     CLEAR     57  55  93 E6        30.12S
OLATHE EXE     CLEAR     56  56 100 E7        30.12S
SALINA         PTCLDY    64  60  87 E7        30.06F
TOPEKA BILLARD CLEAR     57  57 100 E3        30.11S
TOPEKA FORBES  CLEAR     58  57  97 E3        30.10F FOG
$$



USA.gov is the U.S. government's official web portal to all federal, state and local government web resources and services.